Year,Month,Day,Hour,Minute,Value (Times are PST for temperature in C)
2019,04,26,00,00,8.80
2019,04,26,00,01,8.90
2019,04,26,00,02,8.90
2019,04,26,00,03,8.90
2019,04,26,00,04,8.80
2019,04,26,00,05,8.80
2019,04,26,00,06,8.80
2019,04,26,00,07,8.80
2019,04,26,00,08,8.80
2019,04,26,00,09,8.70
2019,04,26,00,10,8.70
2019,04,26,00,11,8.70
2019,04,26,00,12,8.70
2019,04,26,00,13,8.70
2019,04,26,00,14,8.70
2019,04,26,00,15,8.70
2019,04,26,00,16,8.60
2019,04,26,00,17,8.60
2019,04,26,00,18,8.60
2019,04,26,00,19,8.60
2019,04,26,00,20,8.60
2019,04,26,00,21,8.60
2019,04,26,00,22,8.60
2019,04,26,00,23,8.60
2019,04,26,00,24,8.50
2019,04,26,00,25,8.50
2019,04,26,00,26,8.50
2019,04,26,00,27,8.40
2019,04,26,00,28,8.40
2019,04,26,00,29,8.40
2019,04,26,00,30,8.40
2019,04,26,00,31,8.40
2019,04,26,00,32,8.40
2019,04,26,00,33,8.40
2019,04,26,00,34,8.40
2019,04,26,00,35,8.40
2019,04,26,00,36,8.30
2019,04,26,00,37,8.30
2019,04,26,00,38,8.30
2019,04,26,00,39,8.30
2019,04,26,00,40,8.30
2019,04,26,00,41,8.20
2019,04,26,00,42,8.20
2019,04,26,00,43,8.20
2019,04,26,00,44,8.20
2019,04,26,00,45,8.20
2019,04,26,00,46,8.20
2019,04,26,00,47,8.20
2019,04,26,00,48,8.20
2019,04,26,00,49,8.10
2019,04,26,00,50,8.10
2019,04,26,00,51,8.10
2019,04,26,00,52,8.10
2019,04,26,00,53,8.10
2019,04,26,00,54,8.10
2019,04,26,00,55,8.10
2019,04,26,00,56,8.00
2019,04,26,00,57,8.00
2019,04,26,00,58,8.00
2019,04,26,00,59,8.00
2019,04,26,01,00,7.90
2019,04,26,01,01,7.90
2019,04,26,01,02,7.90
2019,04,26,01,03,7.90
2019,04,26,01,04,7.90
2019,04,26,01,05,7.90
2019,04,26,01,06,7.90
2019,04,26,01,07,7.90
2019,04,26,01,08,7.90
2019,04,26,01,09,7.90
2019,04,26,01,10,7.90
2019,04,26,01,11,7.80
2019,04,26,01,12,7.80
2019,04,26,01,13,7.80
2019,04,26,01,14,7.80
2019,04,26,01,15,7.80
2019,04,26,01,16,7.80
2019,04,26,01,17,7.80
2019,04,26,01,18,7.80
2019,04,26,01,19,7.80
2019,04,26,01,20,7.80
2019,04,26,01,21,7.80
2019,04,26,01,22,7.80
2019,04,26,01,23,7.70
2019,04,26,01,24,7.70
2019,04,26,01,25,7.70
2019,04,26,01,26,7.70
2019,04,26,01,27,7.70
2019,04,26,01,28,7.80
2019,04,26,01,29,7.80
2019,04,26,01,30,7.70
2019,04,26,01,31,7.70
2019,04,26,01,32,7.80
2019,04,26,01,33,7.80
2019,04,26,01,34,7.70
2019,04,26,01,35,7.70
2019,04,26,01,36,7.70
2019,04,26,01,37,7.70
2019,04,26,01,38,7.70
2019,04,26,01,39,7.70
2019,04,26,01,40,7.70
2019,04,26,01,41,7.70
2019,04,26,01,42,7.70
2019,04,26,01,43,7.70
2019,04,26,01,44,7.70
2019,04,26,01,45,7.70
2019,04,26,01,46,7.70
2019,04,26,01,47,7.70
2019,04,26,01,48,7.60
2019,04,26,01,49,7.60
2019,04,26,01,50,7.60
2019,04,26,01,51,7.60
2019,04,26,01,52,7.60
2019,04,26,01,53,7.50
2019,04,26,01,54,7.50
2019,04,26,01,55,7.50
2019,04,26,01,56,7.50
2019,04,26,01,57,7.50
2019,04,26,01,58,7.50
2019,04,26,01,59,7.50
2019,04,26,02,00,7.40
2019,04,26,02,01,7.40
2019,04,26,02,02,7.40
2019,04,26,02,03,7.40
2019,04,26,02,04,7.40
2019,04,26,02,05,7.40
2019,04,26,02,06,7.40
2019,04,26,02,07,7.40
2019,04,26,02,08,7.40
2019,04,26,02,09,7.40
2019,04,26,02,10,7.40
2019,04,26,02,11,7.40
2019,04,26,02,12,7.40
2019,04,26,02,13,7.40
2019,04,26,02,14,7.40
2019,04,26,02,15,7.40
2019,04,26,02,16,7.40
2019,04,26,02,17,7.30
2019,04,26,02,18,7.30
2019,04,26,02,19,7.30
2019,04,26,02,20,7.30
2019,04,26,02,21,7.30
2019,04,26,02,22,7.30
2019,04,26,02,23,7.30
2019,04,26,02,24,7.30
2019,04,26,02,25,7.30
2019,04,26,02,26,7.30
2019,04,26,02,27,7.30
2019,04,26,02,28,7.30
2019,04,26,02,29,7.30
2019,04,26,02,30,7.20
2019,04,26,02,31,7.20
2019,04,26,02,32,7.20
2019,04,26,02,33,7.20
2019,04,26,02,34,7.20
2019,04,26,02,35,7.30
2019,04,26,02,36,7.30
2019,04,26,02,37,7.30
2019,04,26,02,38,7.30
2019,04,26,02,39,7.30
2019,04,26,02,40,7.30
2019,04,26,02,41,7.20
2019,04,26,02,42,7.20
2019,04,26,02,43,7.20
2019,04,26,02,44,7.20
2019,04,26,02,45,7.20
2019,04,26,02,46,7.20
2019,04,26,02,47,7.20
2019,04,26,02,48,7.20
2019,04,26,02,49,7.20
2019,04,26,02,50,7.30
2019,04,26,02,51,7.20
2019,04,26,02,52,7.20
2019,04,26,02,53,7.20
2019,04,26,02,54,7.20
2019,04,26,02,55,7.20
2019,04,26,02,56,7.20
2019,04,26,02,57,7.20
2019,04,26,02,58,7.10
2019,04,26,02,59,7.10
2019,04,26,03,00,7.10
2019,04,26,03,01,7.10
2019,04,26,03,02,7.10
2019,04,26,03,03,7.10
2019,04,26,03,04,7.00
2019,04,26,03,05,7.00
2019,04,26,03,06,7.00
2019,04,26,03,07,7.00
2019,04,26,03,08,7.00
2019,04,26,03,09,7.00
2019,04,26,03,10,7.00
2019,04,26,03,11,7.00
2019,04,26,03,12,7.00
2019,04,26,03,13,7.00
2019,04,26,03,14,7.00
2019,04,26,03,15,7.00
2019,04,26,03,16,7.00
2019,04,26,03,17,7.00
2019,04,26,03,18,7.00
2019,04,26,03,19,7.10
2019,04,26,03,20,7.10
2019,04,26,03,21,7.10
2019,04,26,03,22,7.10
2019,04,26,03,23,7.10
2019,04,26,03,24,7.10
2019,04,26,03,25,7.10
2019,04,26,03,26,7.10
2019,04,26,03,27,7.00
2019,04,26,03,28,7.00
2019,04,26,03,29,7.10
2019,04,26,03,30,7.00
2019,04,26,03,31,7.00
2019,04,26,03,32,7.00
2019,04,26,03,33,6.90
2019,04,26,03,34,6.90
2019,04,26,03,35,6.90
2019,04,26,03,36,6.90
2019,04,26,03,37,6.80
2019,04,26,03,38,6.80
2019,04,26,03,39,6.80
2019,04,26,03,40,6.80
2019,04,26,03,41,6.80
2019,04,26,03,42,6.80
2019,04,26,03,43,6.80
2019,04,26,03,44,6.70
2019,04,26,03,45,6.70
2019,04,26,03,46,6.70
2019,04,26,03,47,6.70
2019,04,26,03,48,6.70
2019,04,26,03,49,6.70
2019,04,26,03,50,6.70
2019,04,26,03,51,6.70
2019,04,26,03,52,6.70
2019,04,26,03,53,6.70
2019,04,26,03,54,6.70
2019,04,26,03,55,6.70
2019,04,26,03,56,6.70
2019,04,26,03,57,6.70
2019,04,26,03,58,6.70
2019,04,26,03,59,6.70
2019,04,26,04,00,6.70
2019,04,26,04,01,6.70
2019,04,26,04,02,6.70
2019,04,26,04,03,6.70
2019,04,26,04,04,6.70
2019,04,26,04,05,6.70
2019,04,26,04,06,6.70
2019,04,26,04,07,6.70
2019,04,26,04,08,6.70
2019,04,26,04,09,6.70
2019,04,26,04,10,6.70
2019,04,26,04,11,6.70
2019,04,26,04,12,6.60
2019,04,26,04,13,6.60
2019,04,26,04,14,6.60
2019,04,26,04,15,6.60
2019,04,26,04,16,6.60
2019,04,26,04,17,6.60
2019,04,26,04,18,6.60
2019,04,26,04,19,6.50
2019,04,26,04,20,6.50
2019,04,26,04,21,6.50
2019,04,26,04,22,6.50
2019,04,26,04,23,6.50
2019,04,26,04,24,6.50
2019,04,26,04,25,6.50
2019,04,26,04,26,6.40
2019,04,26,04,27,6.40
2019,04,26,04,28,6.40
2019,04,26,04,29,6.40
2019,04,26,04,30,6.40
2019,04,26,04,31,6.40
2019,04,26,04,32,6.40
2019,04,26,04,33,6.40
2019,04,26,04,34,6.50
2019,04,26,04,35,6.50
2019,04,26,04,36,6.50
2019,04,26,04,37,6.50
2019,04,26,04,38,6.50
2019,04,26,04,39,6.50
2019,04,26,04,40,6.40
2019,04,26,04,41,6.40
2019,04,26,04,42,6.40
2019,04,26,04,43,6.40
2019,04,26,04,44,6.40
2019,04,26,04,45,6.40
2019,04,26,04,46,6.40
2019,04,26,04,47,6.40
2019,04,26,04,48,6.40
2019,04,26,04,49,6.40
2019,04,26,04,50,6.40
2019,04,26,04,51,6.40
2019,04,26,04,52,6.40
2019,04,26,04,53,6.40
2019,04,26,04,54,6.40
2019,04,26,04,55,6.40
2019,04,26,04,56,6.30
2019,04,26,04,57,6.30
2019,04,26,04,58,6.30
2019,04,26,04,59,6.30
2019,04,26,05,00,6.30
2019,04,26,05,01,6.30
2019,04,26,05,02,6.30
2019,04,26,05,03,6.30
2019,04,26,05,04,6.30
2019,04,26,05,05,6.30
2019,04,26,05,06,6.30
2019,04,26,05,07,6.30
2019,04,26,05,08,6.30
2019,04,26,05,09,6.30
2019,04,26,05,10,6.30
2019,04,26,05,11,6.30
2019,04,26,05,12,6.30
2019,04,26,05,13,6.30
2019,04,26,05,14,6.30
2019,04,26,05,15,6.40
2019,04,26,05,16,6.40
2019,04,26,05,17,6.40
2019,04,26,05,18,6.40
2019,04,26,05,19,6.40
2019,04,26,05,20,6.40
2019,04,26,05,21,6.40
2019,04,26,05,22,6.40
2019,04,26,05,23,6.40
2019,04,26,05,24,6.40
2019,04,26,05,25,6.40
2019,04,26,05,26,6.40
2019,04,26,05,27,6.40
2019,04,26,05,28,6.40
2019,04,26,05,29,6.40
2019,04,26,05,30,6.40
2019,04,26,05,31,6.40
2019,04,26,05,32,6.40
2019,04,26,05,33,6.40
2019,04,26,05,34,6.30
2019,04,26,05,35,6.30
2019,04,26,05,36,6.30
2019,04,26,05,37,6.30
2019,04,26,05,38,6.30
2019,04,26,05,39,6.30
2019,04,26,05,40,6.30
2019,04,26,05,41,6.30
2019,04,26,05,42,6.30
2019,04,26,05,43,6.30
2019,04,26,05,44,6.30
2019,04,26,05,45,6.30
2019,04,26,05,46,6.30
2019,04,26,05,47,6.30
2019,04,26,05,48,6.30
2019,04,26,05,49,6.30
2019,04,26,05,50,6.30
2019,04,26,05,51,6.30
2019,04,26,05,52,6.30
2019,04,26,05,53,6.30
2019,04,26,05,54,6.30
2019,04,26,05,55,6.30
2019,04,26,05,56,6.40
2019,04,26,05,57,6.30
2019,04,26,05,58,6.40
2019,04,26,05,59,6.40
2019,04,26,06,00,6.40
2019,04,26,06,01,6.40
2019,04,26,06,02,6.40
2019,04,26,06,03,6.40
2019,04,26,06,04,6.40
2019,04,26,06,05,6.40
2019,04,26,06,06,6.40
2019,04,26,06,07,6.40
2019,04,26,06,08,6.40
2019,04,26,06,09,6.40
2019,04,26,06,10,6.40
2019,04,26,06,11,6.40
2019,04,26,06,12,6.40
2019,04,26,06,13,6.40
2019,04,26,06,14,6.40
2019,04,26,06,15,6.40
2019,04,26,06,16,6.30
2019,04,26,06,17,6.30
2019,04,26,06,18,6.30
2019,04,26,06,19,6.30
2019,04,26,06,20,6.30
2019,04,26,06,21,6.30
2019,04,26,06,22,6.30
2019,04,26,06,23,6.30
2019,04,26,06,24,6.30
2019,04,26,06,25,6.20
2019,04,26,06,26,6.20
2019,04,26,06,27,6.20
2019,04,26,06,28,6.20
2019,04,26,06,29,6.20
2019,04,26,06,30,6.20
2019,04,26,06,31,6.20
2019,04,26,06,32,6.20
2019,04,26,06,33,6.20
2019,04,26,06,34,6.20
2019,04,26,06,35,6.20
2019,04,26,06,36,6.20
2019,04,26,06,37,6.20
2019,04,26,06,38,6.20
2019,04,26,06,39,6.10
2019,04,26,06,40,6.10
2019,04,26,06,41,6.10
2019,04,26,06,42,6.10
2019,04,26,06,43,6.00
2019,04,26,06,44,6.00
2019,04,26,06,45,5.90
2019,04,26,06,46,5.90
2019,04,26,06,47,5.90
2019,04,26,06,48,5.90
2019,04,26,06,49,5.80
2019,04,26,06,50,5.80
2019,04,26,06,51,5.80
2019,04,26,06,52,5.80
2019,04,26,06,53,5.80
2019,04,26,06,54,5.70
2019,04,26,06,55,5.70
2019,04,26,06,56,5.70
2019,04,26,06,57,5.70
2019,04,26,06,58,5.60
2019,04,26,06,59,5.60
2019,04,26,07,00,5.60
2019,04,26,07,01,5.50
2019,04,26,07,02,5.50
2019,04,26,07,03,5.40
2019,04,26,07,04,5.40
2019,04,26,07,05,5.40
2019,04,26,07,06,5.40
2019,04,26,07,07,5.40
2019,04,26,07,08,5.40
2019,04,26,07,09,5.40
2019,04,26,07,10,5.40
2019,04,26,07,11,5.40
2019,04,26,07,12,5.40
2019,04,26,07,13,5.40
2019,04,26,07,14,5.30
2019,04,26,07,15,5.30
2019,04,26,07,16,5.30
2019,04,26,07,17,5.20
2019,04,26,07,18,5.20
2019,04,26,07,19,5.20
2019,04,26,07,20,5.10
2019,04,26,07,21,5.10
2019,04,26,07,22,5.10
2019,04,26,07,23,5.00
2019,04,26,07,24,5.00
2019,04,26,07,25,5.00
2019,04,26,07,26,5.00
2019,04,26,07,27,4.90
2019,04,26,07,28,4.90
2019,04,26,07,29,4.90
2019,04,26,07,30,4.90
2019,04,26,07,31,4.90
2019,04,26,07,32,4.90
2019,04,26,07,33,4.90
2019,04,26,07,34,4.90
2019,04,26,07,35,4.90
2019,04,26,07,36,4.90
2019,04,26,07,37,4.90
2019,04,26,07,38,4.90
2019,04,26,07,39,4.80
2019,04,26,07,40,4.80
2019,04,26,07,41,4.80
2019,04,26,07,42,4.80
2019,04,26,07,43,4.80
2019,04,26,07,44,4.80
2019,04,26,07,45,4.80
2019,04,26,07,46,4.80
2019,04,26,07,47,4.80
2019,04,26,07,48,4.80
2019,04,26,07,49,4.80
2019,04,26,07,50,4.80
2019,04,26,07,51,4.80
2019,04,26,07,52,4.80
2019,04,26,07,53,4.80
2019,04,26,07,54,4.80
2019,04,26,07,55,4.80
2019,04,26,07,56,4.80
2019,04,26,07,57,4.80
2019,04,26,07,58,4.80
2019,04,26,07,59,4.80
2019,04,26,08,00,4.80
2019,04,26,08,01,4.70
2019,04,26,08,02,4.70
2019,04,26,08,03,4.70
2019,04,26,08,04,4.70
2019,04,26,08,05,4.70
2019,04,26,08,06,4.80
2019,04,26,08,07,4.80
2019,04,26,08,08,4.80
2019,04,26,08,09,4.80
2019,04,26,08,10,4.80
2019,04,26,08,11,4.80
2019,04,26,08,12,4.80
2019,04,26,08,13,4.80
2019,04,26,08,14,4.90
2019,04,26,08,15,4.90
2019,04,26,08,16,4.90
2019,04,26,08,17,4.90
2019,04,26,08,18,4.90
2019,04,26,08,19,4.90
2019,04,26,08,20,4.90
2019,04,26,08,21,5.00
2019,04,26,08,22,5.00
2019,04,26,08,23,5.00
2019,04,26,08,24,5.00
2019,04,26,08,25,5.00
2019,04,26,08,26,5.00
2019,04,26,08,27,5.00
2019,04,26,08,28,5.00
2019,04,26,08,29,5.00
2019,04,26,08,30,4.90
2019,04,26,08,31,4.90
2019,04,26,08,32,4.90
2019,04,26,08,33,4.90
2019,04,26,08,34,4.90
2019,04,26,08,35,4.90
2019,04,26,08,36,4.90
2019,04,26,08,37,4.90
2019,04,26,08,38,4.90
2019,04,26,08,39,4.90
2019,04,26,08,40,4.90
2019,04,26,08,41,4.90
2019,04,26,08,42,4.90
2019,04,26,08,43,4.90
2019,04,26,08,44,5.00
2019,04,26,08,45,5.00
2019,04,26,08,46,5.00
2019,04,26,08,47,5.00
2019,04,26,08,48,5.10
2019,04,26,08,49,5.10
2019,04,26,08,50,5.10
2019,04,26,08,51,5.10
2019,04,26,08,52,5.10
2019,04,26,08,53,5.20
2019,04,26,08,54,5.20
2019,04,26,08,55,5.20
2019,04,26,08,56,5.20
2019,04,26,08,57,5.20
2019,04,26,08,58,5.20
2019,04,26,08,59,5.20
2019,04,26,09,00,5.20
2019,04,26,09,01,5.20
2019,04,26,09,02,5.20
2019,04,26,09,03,5.20
2019,04,26,09,04,5.20
2019,04,26,09,05,5.20
2019,04,26,09,06,5.20
2019,04,26,09,07,5.20
2019,04,26,09,08,5.20
2019,04,26,09,09,5.20
2019,04,26,09,10,5.20
2019,04,26,09,11,5.20
2019,04,26,09,12,5.30
2019,04,26,09,13,5.30
2019,04,26,09,14,5.30
2019,04,26,09,15,5.30
2019,04,26,09,16,5.40
2019,04,26,09,17,5.40
2019,04,26,09,18,5.40
2019,04,26,09,19,5.50
2019,04,26,09,20,5.40
2019,04,26,09,21,5.50
2019,04,26,09,22,5.50
2019,04,26,09,23,5.50
2019,04,26,09,24,5.50
2019,04,26,09,25,5.50
2019,04,26,09,26,5.50
2019,04,26,09,27,5.50
2019,04,26,09,28,5.50
2019,04,26,09,29,5.60
2019,04,26,09,30,5.60
2019,04,26,09,31,5.60
2019,04,26,09,32,5.70
2019,04,26,09,33,5.70
2019,04,26,09,34,5.70
2019,04,26,09,35,5.80
2019,04,26,09,36,5.80
2019,04,26,09,37,5.80
2019,04,26,09,38,5.90
2019,04,26,09,39,5.90
2019,04,26,09,40,5.90
2019,04,26,09,41,5.90
2019,04,26,09,42,5.90
2019,04,26,09,43,5.90
2019,04,26,09,44,5.90
2019,04,26,09,45,5.90
2019,04,26,09,46,6.00
2019,04,26,09,47,6.00
2019,04,26,09,48,6.00
2019,04,26,09,49,6.00
2019,04,26,09,50,6.00
2019,04,26,09,51,6.10
2019,04,26,09,52,6.10
2019,04,26,09,53,6.10
2019,04,26,09,54,6.20
2019,04,26,09,55,6.30
2019,04,26,09,56,6.30
2019,04,26,09,57,6.40
2019,04,26,09,58,6.50
2019,04,26,09,59,6.70
2019,04,26,10,00,6.80
2019,04,26,10,01,6.90
2019,04,26,10,02,7.00
2019,04,26,10,03,7.10
2019,04,26,10,04,7.30
2019,04,26,10,05,7.30
2019,04,26,10,06,7.40
2019,04,26,10,07,7.50
2019,04,26,10,08,7.60
2019,04,26,10,09,7.70
2019,04,26,10,10,7.80
2019,04,26,10,11,7.80
2019,04,26,10,12,7.90
2019,04,26,10,13,8.00
2019,04,26,10,14,8.00
2019,04,26,10,15,8.10
2019,04,26,10,16,8.20
2019,04,26,10,17,8.30
2019,04,26,10,18,8.40
2019,04,26,10,19,8.50
2019,04,26,10,20,8.60
2019,04,26,10,21,8.70
2019,04,26,10,22,8.80
2019,04,26,10,23,8.90
2019,04,26,10,24,9.00
2019,04,26,10,25,9.10
2019,04,26,10,26,9.20
2019,04,26,10,27,9.30
2019,04,26,10,28,9.40
2019,04,26,10,29,9.50
2019,04,26,10,30,9.60
2019,04,26,10,31,9.70
2019,04,26,10,32,9.80
2019,04,26,10,33,9.90
2019,04,26,10,34,10.00
2019,04,26,10,35,10.20
2019,04,26,10,36,10.30
2019,04,26,10,37,10.40
2019,04,26,10,38,10.50
2019,04,26,10,39,10.60
2019,04,26,10,40,10.70
2019,04,26,10,41,10.80
2019,04,26,10,42,10.90
2019,04,26,10,43,11.00
2019,04,26,10,44,11.10
2019,04,26,10,45,11.20
2019,04,26,10,46,11.30
2019,04,26,10,47,11.30
2019,04,26,10,48,11.30
2019,04,26,10,49,11.30
2019,04,26,10,50,11.30
2019,04,26,10,51,11.30
2019,04,26,10,52,11.30
2019,04,26,10,53,11.40
2019,04,26,10,54,11.50
2019,04,26,10,55,11.60
2019,04,26,10,56,11.50
2019,04,26,10,57,11.50
2019,04,26,10,58,11.50
2019,04,26,10,59,11.50
2019,04,26,11,00,11.40
2019,04,26,11,01,11.40
2019,04,26,11,02,11.40
2019,04,26,11,03,11.50
2019,04,26,11,04,11.50
2019,04,26,11,05,11.60
2019,04,26,11,06,11.60
2019,04,26,11,07,11.60
2019,04,26,11,08,11.70
2019,04,26,11,09,11.70
2019,04,26,11,10,11.70
2019,04,26,11,11,11.70
2019,04,26,11,12,11.70
2019,04,26,11,13,11.80
2019,04,26,11,14,11.80
2019,04,26,11,15,11.80
2019,04,26,11,16,11.90
2019,04,26,11,17,11.90
2019,04,26,11,18,11.90
2019,04,26,11,19,11.90
2019,04,26,11,20,11.90
2019,04,26,11,21,11.90
2019,04,26,11,22,11.90
2019,04,26,11,23,11.90
2019,04,26,11,24,11.90
2019,04,26,11,25,11.80
2019,04,26,11,26,11.70
2019,04,26,11,27,11.70
2019,04,26,11,28,11.70
2019,04,26,11,29,11.70
2019,04,26,11,30,11.70
2019,04,26,11,31,11.70
2019,04,26,11,32,11.70
2019,04,26,11,33,11.70
2019,04,26,11,34,11.70
2019,04,26,11,35,11.70
2019,04,26,11,36,11.80
2019,04,26,11,37,11.80
2019,04,26,11,38,11.80
2019,04,26,11,39,11.80
2019,04,26,11,40,11.80
2019,04,26,11,41,11.80
2019,04,26,11,42,11.80
2019,04,26,11,43,11.70
2019,04,26,11,44,11.70
2019,04,26,11,45,11.70
2019,04,26,11,46,11.80
2019,04,26,11,47,11.90
2019,04,26,11,48,12.00
2019,04,26,11,49,12.20
2019,04,26,11,50,12.30
2019,04,26,11,51,12.50
2019,04,26,11,52,12.60
2019,04,26,11,53,12.70
2019,04,26,11,54,12.80
2019,04,26,11,55,12.80
2019,04,26,11,56,12.80
2019,04,26,11,57,12.80
2019,04,26,11,58,12.80
2019,04,26,11,59,12.80
2019,04,26,12,00,12.70
2019,04,26,12,01,12.60
2019,04,26,12,02,12.60
2019,04,26,12,03,12.50
2019,04,26,12,04,12.40
2019,04,26,12,05,12.30
2019,04,26,12,06,12.30
2019,04,26,12,07,12.20
2019,04,26,12,08,12.20
2019,04,26,12,09,12.20
2019,04,26,12,10,12.20
2019,04,26,12,11,12.20
2019,04,26,12,12,12.20
2019,04,26,12,13,12.20
2019,04,26,12,14,12.20
2019,04,26,12,15,12.20
2019,04,26,12,16,12.30
2019,04,26,12,17,12.30
2019,04,26,12,18,12.30
2019,04,26,12,19,12.40
2019,04,26,12,20,12.40
2019,04,26,12,21,12.40
2019,04,26,12,22,12.30
2019,04,26,12,23,12.30
2019,04,26,12,24,12.20
2019,04,26,12,25,12.10
2019,04,26,12,26,12.10
2019,04,26,12,27,12.00
2019,04,26,12,28,12.00
2019,04,26,12,29,11.90
2019,04,26,12,30,11.90
2019,04,26,12,31,11.80
2019,04,26,12,32,11.80
2019,04,26,12,33,11.80
2019,04,26,12,34,11.80
2019,04,26,12,35,11.80
2019,04,26,12,36,11.80
2019,04,26,12,37,11.80
2019,04,26,12,38,11.80
2019,04,26,12,39,11.90
2019,04,26,12,40,11.90
2019,04,26,12,41,11.90
2019,04,26,12,42,11.90
2019,04,26,12,43,11.90
2019,04,26,12,44,11.90
2019,04,26,12,45,11.90
2019,04,26,12,46,11.90
2019,04,26,12,47,12.00
2019,04,26,12,48,12.00
2019,04,26,12,49,12.00
2019,04,26,12,50,12.10
2019,04,26,12,51,12.10
2019,04,26,12,52,12.10
2019,04,26,12,53,12.20
2019,04,26,12,54,12.20
2019,04,26,12,55,12.20
2019,04,26,12,56,12.30
2019,04,26,12,57,12.40
2019,04,26,12,58,12.50
2019,04,26,12,59,12.60
2019,04,26,13,00,12.60
2019,04,26,13,01,12.60
2019,04,26,13,02,12.60
2019,04,26,13,03,12.50
2019,04,26,13,04,12.50
2019,04,26,13,05,12.40
2019,04,26,13,06,12.40
2019,04,26,13,07,12.30
2019,04,26,13,08,12.20
2019,04,26,13,09,12.20
2019,04,26,13,10,12.20
2019,04,26,13,11,12.20
2019,04,26,13,12,12.20
2019,04,26,13,13,12.20
2019,04,26,13,14,12.20
2019,04,26,13,15,12.20
2019,04,26,13,16,12.10
2019,04,26,13,17,12.10
2019,04,26,13,18,12.20
2019,04,26,13,19,12.20
2019,04,26,13,20,12.20
2019,04,26,13,21,12.20
2019,04,26,13,22,12.20
2019,04,26,13,23,12.20
2019,04,26,13,24,12.20
2019,04,26,13,25,12.20
2019,04,26,13,26,12.20
2019,04,26,13,27,12.20
2019,04,26,13,28,12.20
2019,04,26,13,29,12.20
2019,04,26,13,30,12.20
2019,04,26,13,31,12.20
2019,04,26,13,32,12.30
2019,04,26,13,33,12.30
2019,04,26,13,34,12.30
2019,04,26,13,35,12.30
2019,04,26,13,36,12.30
2019,04,26,13,37,12.30
2019,04,26,13,38,12.30
2019,04,26,13,39,12.40
2019,04,26,13,40,12.50
2019,04,26,13,41,12.50
2019,04,26,13,42,12.60
2019,04,26,13,43,12.80
2019,04,26,13,44,12.90
2019,04,26,13,45,13.00
2019,04,26,13,46,13.20
2019,04,26,13,47,13.30
2019,04,26,13,48,13.30
2019,04,26,13,49,13.30
2019,04,26,13,50,13.10
2019,04,26,13,51,13.00
2019,04,26,13,52,12.90
2019,04,26,13,53,12.80
2019,04,26,13,54,12.60
2019,04,26,13,55,12.40
2019,04,26,13,56,12.30
2019,04,26,13,57,12.20
2019,04,26,13,58,12.10
2019,04,26,13,59,12.00
2019,04,26,14,00,12.00
2019,04,26,14,01,12.00
2019,04,26,14,02,12.00
2019,04,26,14,03,12.00
2019,04,26,14,04,12.10
2019,04,26,14,05,12.10
2019,04,26,14,06,12.20
2019,04,26,14,07,12.30
2019,04,26,14,08,12.40
2019,04,26,14,09,12.60
2019,04,26,14,10,12.70
2019,04,26,14,11,12.80
2019,04,26,14,12,13.00
2019,04,26,14,13,13.20
2019,04,26,14,14,13.30
2019,04,26,14,15,13.30
2019,04,26,14,16,13.40
2019,04,26,14,17,13.40
2019,04,26,14,18,13.40
2019,04,26,14,19,13.20
2019,04,26,14,20,13.10
2019,04,26,14,21,12.90
2019,04,26,14,22,12.80
2019,04,26,14,23,12.70
2019,04,26,14,24,12.60
2019,04,26,14,25,12.60
2019,04,26,14,26,12.50
2019,04,26,14,27,12.40
2019,04,26,14,28,12.30
2019,04,26,14,29,12.20
2019,04,26,14,30,12.00
2019,04,26,14,31,11.90
2019,04,26,14,32,11.80
2019,04,26,14,33,11.90
2019,04,26,14,34,11.90
2019,04,26,14,35,11.90
2019,04,26,14,36,12.00
2019,04,26,14,37,12.00
2019,04,26,14,38,12.10
2019,04,26,14,39,12.20
2019,04,26,14,40,12.30
2019,04,26,14,41,12.40
2019,04,26,14,42,12.50
2019,04,26,14,43,12.60
2019,04,26,14,44,12.70
2019,04,26,14,45,12.70
2019,04,26,14,46,12.70
2019,04,26,14,47,12.50
2019,04,26,14,48,12.40
2019,04,26,14,49,12.30
2019,04,26,14,50,12.30
2019,04,26,14,51,12.30
2019,04,26,14,52,12.40
2019,04,26,14,53,12.50
2019,04,26,14,54,12.60
2019,04,26,14,55,12.70
2019,04,26,14,56,12.70
2019,04,26,14,57,12.60
2019,04,26,14,58,12.50
2019,04,26,14,59,12.50
2019,04,26,15,00,12.50
2019,04,26,15,01,12.50
2019,04,26,15,02,12.50
2019,04,26,15,03,12.50
2019,04,26,15,04,12.40
2019,04,26,15,05,12.40
2019,04,26,15,06,12.40
2019,04,26,15,07,12.40
2019,04,26,15,08,12.40
2019,04,26,15,09,12.50
2019,04,26,15,10,12.50
2019,04,26,15,11,12.50
2019,04,26,15,12,12.60
2019,04,26,15,13,12.60
2019,04,26,15,14,12.70
2019,04,26,15,15,12.70
2019,04,26,15,16,12.70
2019,04,26,15,17,12.80
2019,04,26,15,18,12.80
2019,04,26,15,19,12.80
2019,04,26,15,20,12.80
2019,04,26,15,21,12.70
2019,04,26,15,22,12.60
2019,04,26,15,23,12.50
2019,04,26,15,24,12.40
2019,04,26,15,25,12.40
2019,04,26,15,26,12.50
2019,04,26,15,27,12.60
2019,04,26,15,28,12.50
2019,04,26,15,29,12.40
2019,04,26,15,30,12.40
2019,04,26,15,31,12.40
2019,04,26,15,32,12.30
2019,04,26,15,33,12.30
2019,04,26,15,34,12.20
2019,04,26,15,35,12.10
2019,04,26,15,36,12.10
2019,04,26,15,37,12.10
2019,04,26,15,38,12.10
2019,04,26,15,39,12.20
2019,04,26,15,40,12.20
2019,04,26,15,41,12.30
2019,04,26,15,42,12.30
2019,04,26,15,43,12.30
2019,04,26,15,44,12.20
2019,04,26,15,45,12.00
2019,04,26,15,46,11.90
2019,04,26,15,47,11.80
2019,04,26,15,48,11.80
2019,04,26,15,49,11.70
2019,04,26,15,50,11.70
2019,04,26,15,51,11.70
2019,04,26,15,52,11.70
2019,04,26,15,53,11.80
2019,04,26,15,54,11.80
2019,04,26,15,55,11.90
2019,04,26,15,56,12.10
2019,04,26,15,57,12.20
2019,04,26,15,58,12.30
2019,04,26,15,59,12.30
2019,04,26,16,00,12.40
2019,04,26,16,01,12.50
2019,04,26,16,02,12.50
2019,04,26,16,03,12.60
2019,04,26,16,04,12.60
2019,04,26,16,05,12.50
2019,04,26,16,06,12.40
2019,04,26,16,07,12.30
2019,04,26,16,08,12.30
2019,04,26,16,09,12.20
2019,04,26,16,10,12.20
2019,04,26,16,11,12.10
2019,04,26,16,12,11.90
2019,04,26,16,13,11.90
2019,04,26,16,14,11.80
2019,04,26,16,15,11.80
2019,04,26,16,16,11.70
2019,04,26,16,17,11.60
2019,04,26,16,18,11.60
2019,04,26,16,19,11.60
2019,04,26,16,20,11.60
2019,04,26,16,21,11.60
2019,04,26,16,22,11.60
2019,04,26,16,23,11.50
2019,04,26,16,24,11.50
2019,04,26,16,25,11.60
2019,04,26,16,26,11.50
2019,04,26,16,27,11.50
2019,04,26,16,28,11.40
2019,04,26,16,29,11.30
2019,04,26,16,30,11.30
2019,04,26,16,31,11.20
2019,04,26,16,32,11.20
2019,04,26,16,33,11.20
2019,04,26,16,34,11.20
2019,04,26,16,35,11.20
2019,04,26,16,36,11.10
2019,04,26,16,37,11.10
2019,04,26,16,38,11.10
2019,04,26,16,39,11.10
2019,04,26,16,40,11.10
2019,04,26,16,41,11.10
2019,04,26,16,42,11.00
2019,04,26,16,43,11.00
2019,04,26,16,44,11.00
2019,04,26,16,45,11.00
2019,04,26,16,46,11.00
2019,04,26,16,47,10.90
2019,04,26,16,48,10.90
2019,04,26,16,49,10.90
2019,04,26,16,50,10.90
2019,04,26,16,51,10.80
2019,04,26,16,52,10.80
2019,04,26,16,53,10.70
2019,04,26,16,54,10.60
2019,04,26,16,55,10.50
2019,04,26,16,56,10.50
2019,04,26,16,57,10.40
2019,04,26,16,58,10.40
2019,04,26,16,59,10.40
2019,04,26,17,00,10.30
2019,04,26,17,01,10.30
2019,04,26,17,02,10.20
2019,04,26,17,03,10.20
2019,04,26,17,04,10.10
2019,04,26,17,05,10.00
2019,04,26,17,06,9.90
2019,04,26,17,07,9.90
2019,04,26,17,08,9.80
2019,04,26,17,09,9.80
2019,04,26,17,10,9.80
2019,04,26,17,11,9.80
2019,04,26,17,12,9.90
2019,04,26,17,13,9.90
2019,04,26,17,14,9.90
2019,04,26,17,15,9.90
2019,04,26,17,16,9.90
2019,04,26,17,17,9.80
2019,04,26,17,18,9.80
2019,04,26,17,19,9.70
2019,04,26,17,20,9.60
2019,04,26,17,21,9.60
2019,04,26,17,22,9.40
2019,04,26,17,23,9.40
2019,04,26,17,24,9.30
2019,04,26,17,25,9.30
2019,04,26,17,26,9.30
2019,04,26,17,27,9.20
2019,04,26,17,28,9.20
2019,04,26,17,29,9.10
2019,04,26,17,30,9.10
2019,04,26,17,31,9.10
2019,04,26,17,32,9.00
2019,04,26,17,33,9.10
2019,04,26,17,34,9.10
2019,04,26,17,35,9.10
2019,04,26,17,36,9.10
2019,04,26,17,37,9.10
2019,04,26,17,38,9.10
2019,04,26,17,39,9.10
2019,04,26,17,40,9.10
2019,04,26,17,41,9.20
2019,04,26,17,42,9.20
2019,04,26,17,43,9.20
2019,04,26,17,44,9.10
2019,04,26,17,45,9.10
2019,04,26,17,46,9.10
2019,04,26,17,47,9.10
2019,04,26,17,48,9.10